Temperature
24 23 22 21 21 20 20 19 19 19 19 18 18 18 18 18 18 18 18 18 18 18 18 18 18 18 18 18 17 17 17 17 17 17 17 17 17 16 16 16 16 16 16
24 23 22 21 21 20 20 20 20 19 19 19 18 18 18 18 18 18 18 18 18 18 18 18 17 18 18 17 17 17 17 17 17 17 17 17 17 16 16 16 16 16 16
25 23 22 22 21 21 20 20 20 19 19 19 18 18 18 18 18 18 18 18 18 18 18 18 18 18 17 17 17 17 17 17 17 17 18 18 18 16 16 16 16 15 15
25 24 23 22 22 21 21 20 20 20 20 19 19 19 19 19 18 18 18 18 18 17 17 17 17 17 17 17 17 17 17 17 17 17 17 17 17 17 16 16 15 15 15
26 25 24 23 22 21 21 21 20 20 20 20 19 19 19 18 18 18 18 18 18 18 17 17 17 17 17 17 17 17 17 17 17 17 17 17 17 17 17 16 16 15 15
26 25 24 23 22 22 21 21 20 20 20 20 19 19 19 18 18 18 18 18 18 18 17 17 17 17 17 17 17 17 17 17 17 17 17 17 17 17 17 16 16 15 15
26 25 24 23 22 22 22 21 21 20 20 20 20 19 19 19 18 18 18 18 18 18 17 17 17 17 17 17 17 17 17 17 17 17 17 17 17 17 17 17 16 15 15
26 25 24 23 23 22 22 21 21 21 20 20 20 19 19 19 19 19 18 18 18 18 18 17 17 17 17 17 17 17 17 17 17 17 17 17 17 16 16 16 16 16 15
26 25 24 24 23 23 22 22 21 21 21 20 20 20 20 19 19 19 19 18 18 18 18 18 17 17 17 17 17 17 17 17 17 17 17 16 16 16 16 16 16 16 16
26 25 24 24 23 23 22 22 22 21 21 21 20 20 20 20 19 19 19 19 18 18 18 18 17 17 17 17 17 17 17 17 17 17 17 16 16 16 16 16 16 16 16
26 25 24 24 23 23 22 22 21 21 21 21 21 20 20 20 20 19 19 19 19 18 18 18 17 17 17 17 17 17 17 17 16 16 16 16 16 16 16 15 15 15 15
26 25 24 23 23 23 22 22 22 21 21 21 21 20 20 20 20 19 19 19 19 18 18 18 18 17 17 17 17 17 17 16 16 16 16 16 16 16 16 15 15 15 15
25 24 24 23 23 22 22 22 22 21 21 21 21 20 20 20 19 19 19 19 19 19 18 18 18 18 17 17 17 17 17 16 16 16 16 16 16 16 15 15 15 15 15
24 24 23 22 22 22 22 22 22 21 21 21 20 20 20 20 20 19 19 19 19 19 18 18 18 17 17 17 17 17 16 16 16 16 16 16 16 15 15 15 15 15 14
24 23 23 22 22 21 21 21 21 21 21 21 20 20 20 20 20 19 19 19 19 18 19 18 18 17 17 17 17 16 16 16 16 16 16 16 16 16 15 15 15 14 14
24 23 22 22 21 21 21 21 21 21 20 20 20 20 20 20 20 19 19 19 19 18 18 18 18 17 17 17 17 17 16 16 16 16 15 15 15 15 15 15 15 14 14
23 22 22 21 21 21 21 21 21 21 21 20 20 20 20 20 19 19 19 19 19 19 18 18 18 17 17 17 17 17 16 16 16 15 15 15 15 15 15 15 14 14 14
22 22 21 21 21 21 21 21 21 21 21 20 20 19 19 19 19 19 19 19 18 18 18 18 18 17 17 17 17 17 16 16 15 15 15 15 15 15 15 14 14 14 14
21 21 21 21 21 21 21 21 21 21 20 20 20 19 19 19 19 18 19 18 18 18 18 18 17 17 17 17 17 16 16 15 15 15 15 15 14 15 15 14 14 13 13
20 20 21 20 20 20 20 20 20 20 20 19 19 19 19 19 18 18 18 18 18 18 17 17 17 17 17 16 16 16 15 15 15 15 15 15 14 14 14 14 13 13 13
20 20 20 20 19 19 20 20 20 19 19 19 19 19 18 18 18 18 18 17 17 17 17 16 16 16 16 16 16 16 15 15 14 14 14 14 14 14 14 14 13 13 13
19 19 19 19 19 19 19 19 19 19 19 18 18 18 18 18 17 17 17 17 17 16 16 16 16 15 16 15 15 15 15 14 14 14 14 14 14 14 14 13 13 13 13
18 18 18 18 18 18 18 18 19 18 18 18 18 18 17 17 17 17 17 16 16 16 16 15 15 15 15 15 15 15 14 14 14 13 13 13 13 13 13 13 13 13 12
18 18 18 18 18 18 18 18 18 18 18 17 17 17 17 17 17 16 16 16 16 15 15 15 15 15 15 15 15 14 14 14 14 13 13 13 13 13 13 13 12 12 12
17 17 17 17 17 17 17 17 17 17 17 17 17 16 16 16 16 16 16 16 16 15 15 15 15 15 14 14 14 14 14 14 14 13 13 13 12 12 12 12 12 12 11
17 17 17 17 16 16 16 17 17 17 16 16 16 16 16 16 16 16 15 16 15 15 15 15 15 14 14 14 14 14 14 14 14 13 12 12 12 12 12 12 12 12 11
Wind_Speed
10 10 9 9 9 8 8 8 7 7 6 4 4 3 3 2 2 2 2 1 1 2 1 1 2 2 2 2 2 3 4 3 3 3 3 3 4 4 3 3 3 3 4
11 11 10 10 10 10 10 9 9 8 7 5 3 2 2 2 2 1 2 1 2 1 2 2 1 2 2 3 2 3 2 2 3 2 2 2 3 3 3 3 3 3 3
12 13 12 11 11 11 11 9 9 9 8 7 5 4 3 3 3 3 2 2 1 1 1 1 0 1 2 2 3 3 3 3 2 2 2 1 1 2 2 3 3 3 3
13 13 13 13 12 12 11 10 10 9 9 8 6 5 4 2 2 2 2 2 1 1 1 1 1 1 1 1 3 2 2 3 2 2 1 1 1 1 2 2 3 3 3
13 13 13 13 12 11 11 11 10 10 9 8 7 6 4 3 3 3 3 1 1 1 1 1 0 1 1 1 1 1 3 3 2 2 1 1 1 2 2 2 2 2 2
13 13 13 13 12 11 11 11 11 10 10 9 8 7 5 4 3 3 3 2 2 1 1 1 0 1 1 1 2 2 2 2 2 2 2 2 1 1 1 2 3 2 2
13 13 14 14 13 13 12 12 12 11 10 10 9 8 6 6 5 4 4 3 2 2 1 0 0 0 0 0 1 1 2 2 2 2 2 2 2 2 1 1 2 2 2
13 13 14 14 14 14 13 13 12 11 11 10 8 7 7 6 5 5 3 3 1 1 2 1 1 0 1 1 1 1 1 1 2 2 2 2 2 2 2 2 2 3 3
12 13 14 14 14 14 13 13 12 11 11 10 9 8 7 5 4 4 4 3 2 2 3 2 2 1 1 1 1 1 1 1 2 2 2 2 1 2 2 2 3 3 2
11 12 13 13 13 13 12 12 12 11 11 10 9 8 7 6 5 4 4 2 2 1 2 2 2 1 1 1 1 1 0 1 1 1 1 2 2 2 2 2 3 3 3
11 11 11 12 12 12 12 12 12 11 11 10 9 8 7 7 6 5 5 4 3 3 2 2 2 1 1 1 1 1 1 1 1 1 2 2 1 2 2 3 3 2 2
9 10 11 11 11 12 12 12 12 11 11 10 9 8 7 7 7 6 5 5 4 3 3 3 2 2 1 1 1 1 1 1 1 1 2 2 2 2 2 2 2 2 2
8 9 9 10 11 11 11 11 11 11 11 11 10 9 8 8 7 6 6 5 5 4 4 3 3 2 2 2 2 2 2 2 2 2 2 2 2 2 2 2 2 2 3
8 8 9 9 9 9 10 10 10 10 10 10 10 9 9 8 7 7 6 6 5 5 5 4 4 3 3 2 2 2 2 2 2 2 2 2 2 1 2 2 3 3 3
8 8 8 8 8 9 9 10 10 10 10 10 10 10 9 8 8 7 7 6 6 6 5 5 5 4 3 2 2 2 2 2 2 3 2 2 3 4 1 0 2 3 3
7 7 7 8 8 9 9 9 10 9 10 10 10 9 9 9 8 8 8 7 7 6 6 6 5 4 2 4 3 1 2 2 3 2 2 3 4 4 3 3 3 1 3
6 6 6 6 7 7 8 9 10 10 10 10 9 9 9 9 8 8 8 8 8 7 7 6 5 4 3 5 4 1 2 2 2 2 2 2 3 4 3 4 3 2 1
5 5 6 6 6 7 8 8 9 10 10 10 10 9 9 9 8 8 8 7 7 7 6 6 6 5 4 6 5 3 4 3 3 2 2 2 2 2 2 3 4 4 3
3 4 4 5 5 6 8 9 9 9 9 9 10 10 10 9 9 8 8 7 7 7 6 6 6 5 5 6 6 5 4 3 3 3 3 3 3 3 1 3 4 3 3
3 3 4 5 5 6 7 9 9 9 8 8 8 8 9 9 9 8 7 7 6 6 6 5 5 5 5 6 7 6 4 4 4 4 4 3 2 4 3 4 4 4 4
2 3 4 5 5 6 6 7 7 7 7 7 7 7 7 8 7 7 7 7 6 6 5 5 5 5 4 7 7 6 4 3 4 4 4 3 6 4 4 5 4 3 3
3 4 4 4 4 6 6 6 6 6 6 7 7 7 6 6 6 7 6 6 6 7 6 5 5 4 5 5 7 7 6 4 4 3 3 3 7 5 5 5 3 3 5
3 3 4 4 3 4 5 6 5 6 6 6 6 6 6 6 6 6 6 6 6 5 5 5 5 5 5 6 8 9 8 6 4 2 2 3 6 7 6 7 6 6 6
3 3 4 3 3 3 4 4 5 6 7 6 6 6 6 6 6 5 5 5 5 5 5 5 5 4 4 4 5 5 6 6 5 4 3 6 7 6 4 5 7 6 5
2 3 3 3 3 3 3 4 5 6 7 6 6 5 5 5 5 4 3 5 4 3 4 4 4 4 4 3 3 4 4 4 4 4 4 5 5 5 5 5 5 5 5
2 3 3 3 3 4 4 3 4 5 6 6 5 5 5 5 5 5 4 1 0 3 2 1 2 2 2 5 5 4 3 3 4 4 5 6 6 6 6 6 6 6 6
Wind_Direction
191 189 191 191 188 187 186 186 186 178 179 175 179 164 155 152 135 124 97 108 126 133 172 129 137 178 149 150 159 157 156 155 142 141 122 106 90 83 89 79 83 83 75
190 191 194 193 191 189 188 186 187 185 186 178 176 164 145 162 149 123 111 123 133 171 165 151 180 150 156 166 171 179 191 180 185 199 178 161 136 103 78 89 91 84 84
196 194 196 197 194 192 192 191 188 183 187 180 180 168 171 189 161 149 138 124 121 147 103 157 176 177 202 166 188 199 206 209 214 240 261 230 139 125 106 78 78 81 76
200 197 195 196 197 194 191 189 185 184 183 186 191 190 198 184 145 150 129 132 127 117 133 158 169 242 234 171 221 197 232 228 227 209 259 322 87 184 152 143 118 99 85
199 198 197 195 196 194 188 185 183 184 185 190 190 199 208 188 160 156 141 159 131 122 100 100 119 256 257 209 256 233 253 244 253 234 190 172 184 217 211 163 150 125 101
196 197 197 192 192 191 187 183 181 185 187 190 192 199 198 196 178 179 167 177 165 167 147 164 328 275 303 225 237 248 238 262 272 270 241 225 239 220 205 187 175 143 113
195 193 192 191 191 191 189 185 183 186 188 191 192 194 194 195 194 195 186 195 179 170 159 169 208 326 7 272 261 242 273 263 254 256 257 256 261 256 253 200 169 155 145
193 192 191 192 191 191 189 188 186 187 188 189 188 188 191 198 194 192 199 189 178 157 149 164 171 201 267 279 263 263 242 238 248 252 271 268 260 239 220 204 191 187 171
189 189 189 191 190 189 188 189 186 187 188 186 183 186 190 198 188 181 194 185 177 174 171 187 189 201 250 293 269 278 276 222 227 222 220 245 222 215 230 214 215 225 209
183 184 185 187 186 186 185 186 185 186 185 184 186 183 184 185 185 191 181 170 164 164 178 185 186 201 226 242 265 237 173 243 237 242 236 236 210 200 210 211 221 236 231
177 178 180 183 181 180 181 182 183 184 184 184 183 183 181 181 183 185 185 179 175 170 182 198 201 210 224 248 247 261 229 227 221 221 202 216 223 214 202 207 215 214 210
171 171 174 176 179 181 182 183 183 184 184 181 180 182 183 183 185 184 183 177 177 182 185 195 201 210 198 221 232 239 226 217 209 204 196 200 185 194 227 216 207 199 194
165 166 170 175 180 183 183 184 185 185 184 178 179 177 182 181 182 181 180 180 180 184 190 194 199 199 191 199 212 218 217 211 204 197 191 190 180 194 187 215 202 195 181
164 167 169 172 176 181 182 183 186 184 182 178 179 177 180 179 179 184 185 187 187 188 190 191 194 192 190 194 205 201 201 205 196 183 173 169 178 172 187 199 199 189 176
171 173 177 173 173 177 181 182 183 181 180 180 182 180 180 180 180 184 188 188 193 195 187 186 189 190 186 192 197 198 185 192 184 158 151 130 88 54 20 247 173 178 190
181 179 178 178 181 180 180 179 181 179 178 182 185 180 179 180 183 186 184 185 189 190 185 186 187 190 185 99 83 285 148 163 159 149 149 148 135 118 97 52 52 59 199
186 183 180 180 180 181 181 181 179 176 177 181 183 183 183 183 185 184 182 184 185 184 185 186 186 185 145 129 139 176 175 165 159 166 184 186 138 158 156 147 163 161 16
184 178 177 176 177 174 175 174 171 173 176 177 178 184 186 185 184 183 183 183 183 184 184 185 185 181 162 150 165 196 192 183 176 177 182 184 166 163 171 175 175 186 186
179 175 170 168 164 166 167 164 168 172 176 179 178 184 187 187 185 185 184 183 183 184 188 186 187 188 173 163 176 209 191 184 189 188 186 194 179 121 238 196 188 192 189
158 157 148 145 154 158 161 164 169 172 180 182 181 182 185 187 187 184 183 179 182 186 189 184 188 189 185 165 177 214 207 192 199 189 187 164 163 148 205 208 201 202 205
144 146 144 144 148 152 155 166 170 174 174 173 173 176 181 184 183 178 178 177 180 183 189 182 184 185 182 170 175 206 222 209 211 204 199 167 145 169 211 238 220 212 226
147 149 144 141 149 156 160 167 173 170 167 167 167 167 171 176 172 172 174 177 179 182 184 183 188 184 179 179 177 192 223 264 223 226 214 150 153 187 215 227 212 203 233
156 152 149 147 155 162 165 170 170 163 162 164 164 165 167 167 163 166 172 178 186 192 190 190 194 194 185 175 176 190 206 226 230 229 93 132 175 197 208 208 213 213 224
169 160 158 161 161 163 168 169 168 165 165 165 164 165 164 166 167 173 178 186 189 197 200 200 203 199 195 192 182 193 196 201 215 229 182 183 196 219 223 204 212 223 228
171 169 173 172 172 167 167 164 166 169 170 169 168 172 174 169 166 177 190 204 200 203 211 211 210 212 213 192 176 209 206 209 203 204 209 209 205 212 220 221 220 223 220
171 171 179 176 169 166 166 163 172 176 174 174 178 183 185 177 179 175 184 110 209 114 137 317 264 213 143 138 161 193 208 187 165 200 221 221 221 224 226 228 226 223 223
Height
1531 1533 1535 1536 1538 1539 1540 1542 1543 1544 1545 1547 1548 1549 1550 1550 1550 1550 1550 1550 1551 1551 1551 1552 1552 1552 1553 1553 1554 1554 1554 1555 1555 1556 1556 1556 1556 1556 1556 1556 1557 1557 1557
1528 1531 1533 1535 1536 1538 1539 1541 1542 1544 1545 1546 1547 1548 1549 1550 1550 1551 1550 1551 1551 1551 1552 1551 1552 1552 1552 1552 1553 1553 1554 1555 1555 1556 1556 1556 1557 1556 1556 1556 1556 1556 1556
1525 1528 1530 1532 1534 1536 1537 1540 1541 1542 1544 1545 1547 1548 1548 1549 1550 1551 1551 1551 1551 1551 1551 1551 1552 1552 1553 1553 1552 1553 1553 1554 1554 1554 1555 1555 1555 1556 1556 1556 1556 1555 1555
1521 1524 1527 1530 1532 1534 1536 1538 1539 1541 1543 1544 1546 1547 1549 1550 1550 1550 1551 1551 1551 1551 1551 1551 1551 1551 1553 1552 1552 1553 1553 1553 1553 1553 1553 1554 1554 1555 1555 1556 1555 1555 1555
1518 1521 1524 1527 1530 1532 1534 1536 1537 1539 1541 1543 1544 1546 1548 1549 1550 1550 1550 1550 1550 1550 1551 1551 1551 1551 1551 1551 1551 1551 1551 1552 1552 1553 1552 1552 1553 1553 1554 1554 1555 1555 1555
1514 1518 1522 1525 1527 1530 1532 1534 1535 1537 1539 1541 1543 1544 1546 1547 1548 1549 1550 1550 1551 1551 1551 1551 1550 1550 1551 1550 1550 1550 1550 1551 1551 1551 1552 1552 1552 1552 1552 1552 1553 1554 1554
1511 1515 1518 1521 1524 1527 1529 1532 1534 1536 1538 1540 1542 1543 1545 1546 1547 1548 1549 1550 1551 1551 1550 1551 1550 1550 1550 1549 1550 1549 1549 1550 1549 1549 1550 1550 1550 1551 1551 1551 1552 1552 1553
1507 1511 1515 1518 1521 1524 1527 1529 1532 1534 1536 1538 1540 1542 1543 1545 1546 1547 1548 1549 1549 1550 1550 1550 1549 1549 1549 1549 1549 1549 1548 1548 1548 1548 1548 1548 1549 1549 1549 1549 1550 1551 1552
1504 1508 1511 1515 1518 1522 1525 1527 1530 1532 1534 1536 1538 1540 1542 1543 1545 1545 1546 1547 1547 1548 1548 1548 1548 1548 1548 1548 1548 1548 1547 1547 1547 1547 1547 1547 1547 1547 1547 1548 1548 1550 1550
1502 1505 1509 1512 1516 1519 1522 1525 1528 1530 1532 1535 1537 1539 1540 1542 1543 1544 1545 1545 1546 1546 1547 1547 1547 1547 1547 1547 1547 1547 1546 1546 1546 1545 1545 1545 1546 1546 1546 1546 1547 1547 1548
1499 1503 1507 1510 1514 1517 1520 1523 1525 1528 1531 1533 1535 1538 1539 1541 1542 1543 1544 1544 1545 1546 1546 1546 1546 1546 1546 1546 1546 1546 1545 1545 1545 1544 1544 1544 1544 1544 1544 1544 1545 1546 1546
1498 1502 1505 1508 1511 1515 1518 1521 1524 1527 1529 1532 1534 1536 1538 1539 1540 1541 1542 1543 1544 1545 1545 1545 1545 1545 1545 1544 1544 1544 1544 1543 1543 1543 1543 1543 1543 1542 1543 1543 1544 1544 1544
1498 1501 1504 1506 1509 1512 1515 1519 1522 1525 1527 1530 1532 1533 1536 1537 1539 1540 1541 1542 1542 1543 1543 1543 1543 1543 1543 1543 1542 1542 1542 1542 1541 1541 1541 1541 1541 1541 1541 1541 1542 1543 1543
1497 1500 1502 1505 1507 1510 1513 1516 1519 1522 1525 1527 1529 1531 1533 1535 1536 1538 1539 1540 1540 1540 1540 1541 1541 1541 1541 1541 1540 1540 1539 1539 1539 1539 1539 1539 1540 1539 1540 1540 1540 1541 1541
1496 1498 1501 1503 1505 1507 1510 1513 1516 1519 1522 1524 1526 1528 1530 1532 1533 1534 1536 1537 1538 1538 1538 1539 1539 1539 1539 1539 1538 1538 1538 1537 1538 1537 1538 1538 1538 1537 1538 1539 1539 1539 1540
1494 1497 1499 1501 1503 1505 1507 1510 1513 1515 1518 1521 1523 1525 1526 1528 1529 1530 1532 1533 1534 1535 1536 1536 1537 1537 1537 1537 1536 1536 1536 1536 1536 1535 1537 1537 1537 1536 1536 1536 1537 1538 1538
1492 1494 1496 1498 1500 1502 1505 1507 1510 1512 1515 1517 1519 1521 1523 1524 1526 1527 1529 1530 1531 1532 1533 1534 1534 1534 1534 1534 1534 1534 1534 1535 1534 1534 1536 1537 1536 1536 1535 1535 1535 1536 1536
1491 1493 1494 1496 1498 1500 1502 1505 1507 1509 1511 1513 1515 1518 1520 1521 1523 1524 1525 1527 1528 1529 1530 1530 1531 1531 1532 1532 1532 1532 1533 1533 1533 1534 1534 1534 1534 1535 1534 1535 1535 1535 1535
1490 1491 1492 1494 1495 1497 1499 1502 1504 1507 1509 1510 1511 1514 1516 1518 1519 1521 1522 1523 1524 1525 1526 1527 1528 1528 1529 1529 1530 1530 1531 1531 1531 1532 1532 1532 1533 1532 1533 1533 1533 1533 1533
1487 1489 1490 1492 1493 1495 1497 1499 1501 1503 1505 1507 1509 1510 1513 1514 1516 1517 1519 1520 1521 1522 1524 1524 1525 1525 1526 1526 1527 1527 1528 1529 1530 1530 1530 1530 1530 1530 1531 1531 1531 1532 1532
1485 1487 1488 1489 1491 1492 1494 1496 1498 1500 1502 1504 1506 1508 1509 1511 1513 1514 1515 1517 1518 1519 1521 1521 1522 1522 1523 1524 1524 1524 1525 1526 1527 1528 1528 1528 1527 1528 1528 1529 1529 1529 1529
1484 1485 1486 1487 1488 1490 1491 1494 1496 1498 1500 1501 1503 1504 1506 1508 1510 1511 1512 1514 1515 1516 1517 1518 1519 1519 1520 1520 1521 1522 1522 1523 1524 1525 1526 1525 1525 1525 1526 1526 1526 1526 1526
1483 1484 1485 1486 1487 1488 1489 1491 1493 1495 1497 1499 1500 1502 1503 1505 1506 1508 1509 1511 1512 1514 1515 1515 1516 1517 1517 1517 1517 1518 1519 1520 1521 1522 1522 1522 1522 1522 1523 1522 1522 1523 1523
1481 1482 1484 1484 1485 1486 1488 1489 1491 1493 1494 1496 1498 1499 1501 1502 1504 1505 1507 1508 1509 1510 1511 1512 1513 1513 1514 1514 1514 1515 1515 1516 1517 1518 1518 1518 1519 1519 1519 1519 1519 1519 1519
1480 1481 1482 1483 1484 1484 1486 1487 1489 1490 1492 1494 1495 1497 1499 1500 1501 1503 1504 1505 1506 1507 1508 1509 1509 1510 1510 1510 1511 1511 1512 1513 1513 1513 1514 1515 1515 1515 1515 1516 1515 1515 1515
1478 1478 1480 1481 1482 1483 1484 1486 1487 1489 1490 1492 1493 1495 1497 1498 1499 1500 1501 1501 1503 1503 1504 1505 1506 1506 1506 1507 1507 1508 1508 1508 1509 1509 1510 1511 1511 1511 1511 1512 1512 1511 1511